Location: Lecco
(45.8566°N, 9.3977°E)
Time: 06:19:04
(UTC+01:00)

Envisat - Pass Details

Date: 21 October 2019
Orbit: 764 x 766 km, 98.1° (Epoch: 21 November)

Event Time Altitude Azimuth Distance (km) Brightness Sun altitude
Rises 20:32:18 0° 204° (SSW) 3,220 6.4 -22.5°
Reaches altitude 10° 20:35:08 10° 220° (SW) 2,299 5.8 -23.0°
Maximum altitude 20:38:56 21° 269° (W) 1,667 5.5 -23.7°
Drops below altitude 10° 20:42:46 10° 318° (NW) 2,312 6.2 -24.3°
Sets 20:45:38 0° 334° (NNW) 3,244 6.7 -24.8°
